Time,TemperatureF,DewpointF,PressureIn,WindDirection,WindDirectionDegrees,WindSpeedMPH,WindSpeedGustMPH,Humidity,HourlyPrecipIn,Conditions,Clouds,dailyrainin,SoftwareType,DateUTC
2013-07-26 00:02:00,68.0,64.0,29.95,SSE,160,0.0,1.0,87,0.00,,,0.00,,2013-07-26 05:02:00,
2013-07-26 00:12:00,67.0,63.0,29.96,SSE,160,0.0,1.0,88,0.00,,,0.00,,2013-07-26 05:12:00,
2013-07-26 00:22:00,67.0,63.0,29.95,SSW,209,0.0,5.0,88,0.00,,,0.00,,2013-07-26 05:22:00,
2013-07-26 00:32:00,67.0,63.0,29.96,SSW,213,0.0,2.0,88,0.00,,,0.00,,2013-07-26 05:32:00,
2013-07-26 00:43:00,67.0,62.0,29.95,SW,231,1.0,3.0,85,0.00,,,0.00,,2013-07-26 05:43:00,
2013-07-26 00:52:00,67.0,62.0,29.95,WSW,244,0.0,1.0,83,0.00,,,0.00,,2013-07-26 05:52:00,
2013-07-26 01:12:00,67.0,61.0,29.95,SSW,209,0.0,5.0,81,0.00,,,0.00,,2013-07-26 06:12:00,
2013-07-26 01:22:00,66.0,60.0,29.94,SSW,209,0.0,2.0,81,0.00,,,0.00,,2013-07-26 06:22:00,
2013-07-26 01:33:00,66.0,60.0,29.94,SSW,209,0.0,1.0,81,0.00,,,0.00,,2013-07-26 06:33:00,
2013-07-26 01:43:00,66.0,60.0,29.94,SSW,209,0.0,2.0,82,0.00,,,0.00,,2013-07-26 06:43:00,
2013-07-26 01:52:00,66.0,60.0,29.95,SSW,209,0.0,2.0,82,0.00,,,0.00,,2013-07-26 06:52:00,
2013-07-26 02:02:00,65.0,59.0,29.95,SSW,209,0.0,1.0,82,0.00,,,0.00,,2013-07-26 07:02:00,
2013-07-26 02:12:00,65.0,60.0,29.95,SSW,209,0.0,0.0,83,0.00,,,0.00,,2013-07-26 07:12:00,
2013-07-26 02:22:00,65.0,60.0,29.94,SSW,209,0.0,0.0,84,0.00,,,0.00,,2013-07-26 07:22:00,
2013-07-26 02:32:00,64.0,59.0,29.94,SSW,209,0.0,0.0,85,0.00,,,0.00,,2013-07-26 07:32:00,
2013-07-26 02:43:00,64.0,59.0,29.94,SSW,209,0.0,0.0,85,0.00,,,0.00,,2013-07-26 07:43:00,
2013-07-26 02:53:00,64.0,60.0,29.95,SSW,209,0.0,0.0,86,0.00,,,0.00,,2013-07-26 07:53:00,
2013-07-26 03:02:00,63.0,59.0,29.94,SSW,209,0.0,0.0,87,0.00,,,0.00,,2013-07-26 08:02:00,
2013-07-26 03:12:00,63.0,59.0,29.95,SSW,209,0.0,0.0,87,0.00,,,0.00,,2013-07-26 08:12:00,
2013-07-26 03:22:00,63.0,59.0,29.94,SSW,209,0.0,0.0,88,0.00,,,0.00,,2013-07-26 08:22:00,
2013-07-26 03:32:00,63.0,60.0,29.94,SSW,209,0.0,0.0,89,0.00,,,0.00,,2013-07-26 08:32:00,
2013-07-26 03:52:00,63.0,60.0,29.93,SSW,203,0.0,0.0,90,0.00,,,0.00,,2013-07-26 08:52:00,
2013-07-26 04:02:00,63.0,60.0,29.93,SSW,203,0.0,1.0,90,0.00,,,0.00,,2013-07-26 09:02:00,
2013-07-26 04:12:00,63.0,60.0,29.93,SSW,204,0.0,0.0,90,0.00,,,0.00,,2013-07-26 09:12:00,
2013-07-26 04:22:00,62.0,59.0,29.93,SSW,204,0.0,1.0,91,0.00,,,0.00,,2013-07-26 09:22:00,
2013-07-26 04:32:00,62.0,59.0,29.93,SSW,204,0.0,1.0,91,0.00,,,0.00,,2013-07-26 09:32:00,
2013-07-26 04:52:00,62.0,59.0,29.93,SSW,204,0.0,0.0,91,0.00,,,0.00,,2013-07-26 09:52:00,
2013-07-26 05:02:00,62.0,59.0,29.93,SSW,203,0.0,0.0,91,0.00,,,0.00,,2013-07-26 10:02:00,
2013-07-26 05:12:00,62.0,60.0,29.93,SSW,204,0.0,0.0,92,0.00,,,0.00,,2013-07-26 10:12:00,
2013-07-26 05:22:00,62.0,60.0,29.94,SSW,204,0.0,1.0,92,0.00,,,0.00,,2013-07-26 10:22:00,
2013-07-26 05:33:00,62.0,60.0,29.94,SSW,204,0.0,1.0,92,0.00,,,0.00,,2013-07-26 10:33:00,
2013-07-26 05:42:00,62.0,60.0,29.94,SSW,204,0.0,1.0,92,0.00,,,0.00,,2013-07-26 10:42:00,
2013-07-26 06:22:00,-999.0,-99.9,29.95,SSW,204,0.0,1.0,-999,0.00,,,0.00,,2013-07-26 11:22:00,
2013-07-26 06:32:00,-999.0,-99.9,29.95,SSW,204,0.0,2.0,-999,0.00,,,0.00,,2013-07-26 11:32:00,
2013-07-26 06:43:00,-999.0,-99.9,29.95,SSW,204,1.0,4.0,-999,0.00,,,0.00,,2013-07-26 11:43:00,
2013-07-26 06:52:00,-999.0,-99.9,29.95,SSE,159,1.0,2.0,-999,0.00,,,0.00,,2013-07-26 11:52:00,
2013-07-26 07:02:00,-999.0,-99.9,29.95,South,171,1.0,5.0,-999,0.00,,,0.00,,2013-07-26 12:02:00,
2013-07-26 07:12:00,-999.0,-99.9,29.95,South,177,3.0,6.0,-999,0.00,,,0.00,,2013-07-26 12:12:00,
2013-07-26 07:22:00,-999.0,-99.9,29.94,SSW,194,4.0,8.0,-999,0.00,,,0.00,,2013-07-26 12:22:00,
2013-07-26 07:33:00,-999.0,-99.9,29.94,South,187,5.0,9.0,-999,0.00,,,0.00,,2013-07-26 12:33:00,
2013-07-26 07:43:00,-999.0,-99.9,29.95,South,171,2.0,8.0,-999,0.00,,,0.00,,2013-07-26 12:43:00,
2013-07-26 07:53:00,-999.0,-99.9,29.95,SSW,192,5.0,9.0,-999,0.00,,,0.00,,2013-07-26 12:53:00,
2013-07-26 08:02:00,66.0,-99.9,29.94,SSW,193,5.0,8.0,-999,0.00,,,0.00,,2013-07-26 13:02:00,
2013-07-26 08:12:00,67.0,64.0,29.94,SSW,195,4.0,9.0,89,0.00,,,0.00,,2013-07-26 13:12:00,
2013-07-26 08:23:00,67.0,63.0,29.94,SSW,192,1.0,9.0,88,0.00,,,0.00,,2013-07-26 13:23:00,
2013-07-26 08:43:00,68.0,64.0,29.93,SSW,202,1.0,6.0,87,0.00,,,0.00,,2013-07-26 13:43:00,
2013-07-26 08:53:00,68.0,64.0,29.93,South,188,4.0,8.0,86,0.00,,,0.00,,2013-07-26 13:53:00,
2013-07-26 09:02:00,68.0,64.0,29.93,SSW,198,2.0,8.0,86,0.00,,,0.00,,2013-07-26 14:02:00,
2013-07-26 09:12:00,69.0,64.0,29.93,SSW,194,3.0,10.0,84,0.00,,,0.00,,2013-07-26 14:12:00,
2013-07-26 09:22:00,69.0,64.0,29.93,SSW,192,4.0,8.0,83,0.00,,,0.00,,2013-07-26 14:22:00,
2013-07-26 09:32:00,69.0,63.0,29.92,SW,217,5.0,8.0,82,0.00,,,0.00,,2013-07-26 14:32:00,
2013-07-26 09:43:00,69.0,64.0,29.92,SW,222,4.0,8.0,83,0.00,,,0.00,,2013-07-26 14:43:00,
2013-07-26 09:53:00,69.0,64.0,29.92,SW,229,4.0,8.0,83,0.00,,,0.00,,2013-07-26 14:53:00,
2013-07-26 10:02:00,69.0,64.0,29.91,SSW,198,4.0,9.0,83,0.00,,,0.00,,2013-07-26 15:02:00,
2013-07-26 10:12:00,69.0,64.0,29.91,SSW,197,3.0,7.0,84,0.00,,,0.00,,2013-07-26 15:12:00,
2013-07-26 10:22:00,68.0,63.0,29.91,SSW,196,3.0,9.0,84,0.00,,,0.00,,2013-07-26 15:22:00,
2013-07-26 10:33:00,68.0,63.0,29.91,SSW,194,6.0,10.0,84,0.00,,,0.00,,2013-07-26 15:33:00,
2013-07-26 10:43:00,68.0,63.0,29.91,SSE,159,7.0,12.0,85,0.00,,,0.00,,2013-07-26 15:43:00,
2013-07-26 10:53:00,68.0,64.0,29.91,SSW,200,5.0,10.0,86,0.00,,,0.00,,2013-07-26 15:53:00,
2013-07-26 11:02:00,68.0,64.0,29.90,SSE,159,8.0,11.0,87,0.00,,,0.00,,2013-07-26 16:02:00,
2013-07-26 11:14:00,68.0,64.0,29.90,South,171,5.0,11.0,88,0.00,,,0.00,,2013-07-26 16:14:00,
2013-07-26 11:22:00,68.0,64.0,29.90,SSE,153,5.0,8.0,88,0.00,,,0.00,,2013-07-26 16:22:00,
2013-07-26 11:32:00,68.0,64.0,29.90,SSW,207,4.0,9.0,88,0.00,,,0.00,,2013-07-26 16:32:00,
2013-07-26 11:43:00,68.0,64.0,29.90,SSW,192,5.0,10.0,88,0.00,,,0.00,,2013-07-26 16:43:00,
2013-07-26 11:54:00,68.0,65.0,29.89,SSW,202,5.0,9.0,89,0.00,,,0.00,,2013-07-26 16:54:00,
2013-07-26 12:02:00,68.0,65.0,29.88,SSE,160,6.0,10.0,89,0.00,,,0.00,,2013-07-26 17:02:00,
2013-07-26 12:12:00,69.0,65.0,29.88,SSE,162,6.0,11.0,87,0.00,,,0.00,,2013-07-26 17:12:00,
2013-07-26 12:22:00,69.0,65.0,29.88,South,179,5.0,11.0,87,0.00,,,0.00,,2013-07-26 17:22:00,
2013-07-26 12:33:00,69.0,65.0,29.87,South,186,5.0,13.0,87,0.00,,,0.00,,2013-07-26 17:33:00,
2013-07-26 12:43:00,69.0,65.0,29.87,WSW,247,2.0,11.0,87,0.00,,,0.00,,2013-07-26 17:43:00,
2013-07-26 12:53:00,69.0,65.0,29.88,SW,227,1.0,11.0,87,0.00,,,0.00,,2013-07-26 17:53:00,
2013-07-26 13:02:00,69.0,65.0,29.87,West,268,1.0,8.0,87,0.00,,,0.00,,2013-07-26 18:02:00,
2013-07-26 13:12:00,69.0,65.0,29.87,SSW,209,5.0,9.0,87,0.00,,,0.00,,2013-07-26 18:12:00,
2013-07-26 13:23:00,69.0,65.0,29.87,SW,217,3.0,8.0,88,0.00,,,0.00,,2013-07-26 18:23:00,
2013-07-26 13:33:00,69.0,65.0,29.87,SSW,202,4.0,11.0,88,0.00,,,0.00,,2013-07-26 18:33:00,
2013-07-26 13:43:00,70.0,67.0,29.86,South,180,6.0,11.0,89,0.00,,,0.00,,2013-07-26 18:43:00,
2013-07-26 13:52:00,70.0,66.0,29.86,SSW,210,7.0,15.0,86,0.00,,,0.00,,2013-07-26 18:52:00,
2013-07-26 14:03:00,71.0,67.0,29.85,SW,233,6.0,13.0,86,0.00,,,0.00,,2013-07-26 19:03:00,
2013-07-26 14:12:00,71.0,66.0,29.85,South,170,6.0,13.0,84,0.00,,,0.00,,2013-07-26 19:12:00,
2013-07-26 14:22:00,71.0,66.0,29.85,SSW,209,1.0,9.0,85,0.00,,,0.00,,2013-07-26 19:22:00,
2013-07-26 14:32:00,73.0,68.0,29.84,South,175,7.0,10.0,83,0.00,,,0.00,,2013-07-26 19:32:00,
2013-07-26 14:43:00,74.0,67.0,29.83,WSW,254,4.0,10.0,79,0.00,,,0.00,,2013-07-26 19:43:00,
2013-07-26 14:52:00,75.0,68.0,29.83,WSW,245,4.0,10.0,79,0.00,,,0.00,,2013-07-26 19:52:00,
2013-07-26 15:02:00,75.0,67.0,29.83,South,179,5.0,10.0,77,0.00,,,0.00,,2013-07-26 20:02:00,
2013-07-26 15:12:00,75.0,67.0,29.82,SW,230,4.0,10.0,76,0.00,,,0.00,,2013-07-26 20:12:00,
2013-07-26 15:22:00,74.0,66.0,29.81,SSW,198,3.0,7.0,77,0.00,,,0.00,,2013-07-26 20:22:00,
2013-07-26 15:32:00,69.0,61.0,29.86,SW,223,6.0,16.0,75,0.29,,,0.29,,2013-07-26 20:32:00,
2013-07-26 16:22:00,66.0,63.0,29.83,SSW,213,1.0,8.0,91,0.40,,,0.40,,2013-07-26 21:22:00,
2013-07-26 16:32:00,67.0,64.0,29.83,South,182,3.0,6.0,89,0.18,,,0.40,,2013-07-26 21:32:00,
2013-07-26 16:43:00,68.0,64.0,29.84,SSW,200,3.0,6.0,88,0.01,,,0.40,,2013-07-26 21:43:00,
2013-07-26 16:53:00,69.0,65.0,29.84,SW,219,0.0,6.0,86,0.00,,,0.40,,2013-07-26 21:53:00,
2013-07-26 17:02:00,71.0,66.0,29.84,South,179,1.0,4.0,85,0.00,,,0.40,,2013-07-26 22:02:00,
2013-07-26 17:12:00,70.0,65.0,29.84,SSW,196,2.0,5.0,84,0.00,,,0.40,,2013-07-26 22:12:00,
2013-07-26 17:22:00,71.0,66.0,29.84,SSW,204,0.0,6.0,84,0.00,,,0.40,,2013-07-26 22:22:00,
2013-07-26 17:33:00,72.0,65.0,29.85,WSW,242,1.0,7.0,80,0.00,,,0.40,,2013-07-26 22:33:00,
2013-07-26 17:43:00,73.0,66.0,29.85,West,267,1.0,6.0,78,0.00,,,0.40,,2013-07-26 22:43:00,
2013-07-26 17:53:00,74.0,66.0,29.85,WNW,297,2.0,6.0,75,0.00,,,0.40,,2013-07-26 22:53:00,
2013-07-26 18:02:00,75.0,65.0,29.84,SSW,197,1.0,5.0,70,0.00,,,0.40,,2013-07-26 23:02:00,
2013-07-26 18:12:00,76.0,60.0,29.84,West,281,3.0,8.0,58,0.00,,,0.40,,2013-07-26 23:12:00,
2013-07-26 18:22:00,76.0,59.0,29.84,NW,306,1.0,6.0,56,0.00,,,0.40,,2013-07-26 23:22:00,
2013-07-26 18:32:00,76.0,58.0,29.84,West,269,5.0,8.0,54,0.00,,,0.40,,2013-07-26 23:32:00,
2013-07-26 18:43:00,76.0,59.0,29.84,WNW,289,1.0,6.0,55,0.00,,,0.40,,2013-07-26 23:43:00,
2013-07-26 19:02:00,75.0,58.0,29.85,West,265,3.0,9.0,55,0.00,,,0.40,,2013-07-27 00:02:00,
2013-07-26 19:12:00,74.0,58.0,29.85,West,261,4.0,9.0,57,0.00,,,0.40,,2013-07-27 00:12:00,
2013-07-26 19:22:00,73.0,58.0,29.85,NW,312,3.0,10.0,60,0.00,,,0.40,,2013-07-27 00:22:00,
2013-07-26 19:32:00,73.0,59.0,29.85,WSW,246,3.0,10.0,61,0.00,,,0.40,,2013-07-27 00:32:00,
2013-07-26 19:43:00,72.0,58.0,29.86,West,273,4.0,13.0,62,0.00,,,0.40,,2013-07-27 00:43:00,
2013-07-26 19:53:00,72.0,59.0,29.86,West,279,2.0,9.0,63,0.00,,,0.40,,2013-07-27 00:53:00,
2013-07-26 20:02:00,71.0,59.0,29.87,WNW,290,0.0,5.0,65,0.00,,,0.40,,2013-07-27 01:02:00,
2013-07-26 20:12:00,71.0,59.0,29.87,WNW,288,3.0,8.0,67,0.00,,,0.40,,2013-07-27 01:12:00,
2013-07-26 20:22:00,70.0,59.0,29.88,WNW,283,2.0,7.0,67,0.00,,,0.40,,2013-07-27 01:22:00,
2013-07-26 20:32:00,70.0,59.0,29.88,West,270,1.0,7.0,68,0.00,,,0.40,,2013-07-27 01:32:00,
2013-07-26 20:43:00,70.0,59.0,29.88,WNW,294,0.0,6.0,68,0.00,,,0.40,,2013-07-27 01:43:00,
2013-07-26 20:53:00,69.0,58.0,29.87,North,10,1.0,6.0,68,0.00,,,0.40,,2013-07-27 01:53:00,
2013-07-26 21:02:00,69.0,58.0,29.87,WNW,294,1.0,5.0,68,0.00,,,0.40,,2013-07-27 02:02:00,
2013-07-26 21:12:00,68.0,58.0,29.88,West,279,1.0,8.0,70,0.00,,,0.40,,2013-07-27 02:12:00,
2013-07-26 21:22:00,68.0,58.0,29.87,WSW,242,2.0,8.0,70,0.00,,,0.40,,2013-07-27 02:22:00,
2013-07-26 21:32:00,68.0,58.0,29.87,West,276,1.0,5.0,70,0.00,,,0.40,,2013-07-27 02:32:00,
2013-07-26 21:43:00,67.0,57.0,29.87,West,263,1.0,5.0,71,0.00,,,0.40,,2013-07-27 02:43:00,
2013-07-26 21:52:00,67.0,57.0,29.87,West,273,0.0,2.0,71,0.00,,,0.40,,2013-07-27 02:52:00,
2013-07-26 22:03:00,67.0,57.0,29.88,WNW,291,0.0,2.0,71,0.00,,,0.40,,2013-07-27 03:03:00,
2013-07-26 22:12:00,66.0,56.0,29.88,NW,319,1.0,6.0,71,0.00,,,0.40,,2013-07-27 03:12:00,
2013-07-26 22:22:00,66.0,56.0,29.88,NW,317,0.0,9.0,71,0.00,,,0.40,,2013-07-27 03:22:00,
2013-07-26 22:33:00,66.0,57.0,29.88,WSW,242,0.0,8.0,72,0.00,,,0.40,,2013-07-27 03:33:00,
2013-07-26 22:44:00,66.0,57.0,29.88,NW,314,0.0,7.0,73,0.00,,,0.40,,2013-07-27 03:44:00,
2013-07-26 22:52:00,66.0,57.0,29.89,WNW,282,0.0,5.0,73,0.00,,,0.40,,2013-07-27 03:52:00,
2013-07-26 23:02:00,66.0,57.0,29.88,NW,319,0.0,6.0,73,0.00,,,0.40,,2013-07-27 04:02:00,
2013-07-26 23:12:00,65.0,56.0,29.88,NW,325,0.0,2.0,73,0.00,,,0.40,,2013-07-27 04:12:00,
2013-07-26 23:22:00,64.0,56.0,29.89,NE,44,1.0,5.0,74,0.00,,,0.40,,2013-07-27 04:22:00,
2013-07-26 23:32:00,63.0,55.0,29.89,NNE,21,0.0,2.0,76,0.00,,,0.40,,2013-07-27 04:32:00,
2013-07-26 23:43:00,62.0,55.0,29.89,NNE,22,0.0,2.0,78,0.00,,,0.40,,2013-07-27 04:43:00,
2013-07-26 23:53:00,62.0,56.0,29.89,NNE,22,0.0,1.0,80,0.00,,,0.40,,2013-07-27 04:53:00,